Location: *
(43.9900°N, 3.4811°E)
Time: 22:52:52
(UTC+00:00)

Cosmos 1536 - Pass Details

Date: 25 August 2019
Orbit: 541 x 559 km, 82.5° (Epoch: 22 October)

Event Time Altitude Azimuth Distance (km) Brightness Sun altitude
Exits shadow 19:25:11 - 143° (SE) 1,895 5.0 -9.3°
Reaches altitude 10° 19:25:21 10° 141° (SE) 1,842 4.9 -9.4°
Maximum altitude 19:28:34 23° 88° (E) 1,213 4.1 -9.9°
Drops below altitude 10° 19:31:48 10° 36° (NE) 1,853 5.4 -10.4°
Sets 19:34:18 0° 22° (NNE) 2,752 6.5 -10.8°
